Home > Weather > Montpellier > Past weeks

Flag for France Past Weather in Montpellier, Languedoc-Roussillon, France — Yesterday and Last 2 Weeks

Now
55 °F

Clear.


Feels Like: 54 °F
Forecast: 50 / 72 °F
Wind: 6 mph from Northeast

Location: Montpellier Airport

Current Time: May 25, 2016 at 5:34:56 AM

Latest Report: May 25, 2016 at 5:00 AM


Visibility: 10 mi

Pressure: 29.89 "Hg

Humidity: 82%

Dew Point: 50 °F

Location of MontpellierLocation

Past Weather in Montpellier — Graph

°F

Montpellier Temperature Yesterday

Maximum temperature yesterday: 70 °F (at 12:00 PM)
Minimum temperature yesterday: 48 °F (at 5:30 AM)
Average temperature yesterday: 60 °F

High & Low Weather Summary for the Past Weeks

 TemperatureHumidityPressure
High81 °F (May 14, 4:00 PM)100% (May 10, 12:30 PM)30.15 "Hg (May 10, 12:30 PM)
Low48 °F (May 16, 5:30 AM)22% (May 17, 2:00 PM)29.59 "Hg (May 11, 4:00 PM)
Average62 °F63%29.92 "Hg
* Reported May 10 4:00 AM — May 25 4:00 AM, Montpellier, Weather by CustomWeather, © 2016

Note: Actual official high and low records may vary slightly from our data, if they occured in-between our weather recording intervals... More about our weather records

Advertising

Montpellier Weather History for the Previous 24 Hours

Scroll right to see more
 ConditionsComfort  
Time TempWeatherWind HumidityBarometerVisibility
4:00 AM
Wed, May 25
55 °FClear.5 mph88%29.89 "Hg10 mi
3:30 AM55 °FClear.5 mph88%29.89 "Hg10 mi
3:00 AM55 °FClear.5 mph88%29.89 "Hg10 mi
2:30 AM55 °FClear.3 mph88%29.89 "Hg10 mi
2:00 AM59 °FClear.1 mph77%29.89 "Hg10 mi
1:30 AM59 °FClear.No wind77%29.89 "Hg10 mi
1:00 AM59 °FClear.2 mph77%29.89 "Hg10 mi
12:30 AM59 °FClear.No wind77%29.89 "Hg10 mi
12:00 AM59 °FClear.2 mph77%29.89 "Hg10 mi
11:30 PM
Tue, May 24
59 °FPassing clouds.3 mph77%29.89 "HgN/A
11:00 PM61 °FClear.5 mph72%29.89 "Hg10 mi
10:30 PM61 °FClear.3 mph72%29.89 "Hg10 mi
10:00 PM61 °FSunny.6 mph72%29.89 "Hg10 mi
9:30 PM61 °FSunny.8 mph68%29.89 "Hg10 mi
9:00 PM63 °FSunny.9 mph64%29.89 "Hg10 mi
8:30 PM63 °FSunny.9 mph64%29.86 "Hg10 mi
8:00 PM64 °FSunny.13 mph56%29.86 "Hg10 mi
7:30 PM64 °FSunny.12 mph49%29.86 "Hg10 mi
7:00 PM66 °FSunny.15 mph43%29.86 "Hg10 mi
6:30 PM66 °FSunny.16 mph43%29.86 "Hg10 mi
6:00 PM66 °FSunny.15 mph43%29.86 "Hg10 mi
5:30 PM68 °FSunny.15 mph40%29.89 "Hg10 mi
5:00 PM68 °FSunny.16 mph38%29.89 "Hg10 mi
4:30 PM68 °FSunny.16 mph38%29.89 "Hg10 mi
4:00 PM68 °FSunny.16 mph35%29.89 "Hg10 mi
3:30 PM66 °FSunny.15 mph49%29.92 "Hg10 mi
3:00 PM66 °FSunny.15 mph46%29.92 "Hg10 mi
2:30 PM68 °FSunny.14 mph43%29.92 "Hg10 mi
2:00 PM66 °FSunny.15 mph43%29.92 "Hg10 mi
1:30 PM66 °FSunny.13 mph46%29.92 "Hg10 mi
1:00 PM68 °FSunny.12 mph43%29.95 "Hg10 mi
12:30 PM68 °FSunny.12 mph46%29.95 "Hg10 mi
12:00 PM70 °FPassing clouds.7 mph38%29.95 "HgN/A
11:30 AM68 °FPassing clouds.10 mph38%29.95 "HgN/A
11:00 AM66 °FPassing clouds.8 mph40%29.98 "HgN/A
10:00 AM64 °FPassing clouds.8 mph43%30.01 "HgN/A
9:30 AM63 °FSunny.9 mph49%30.01 "Hg10 mi
9:00 AM61 °FSunny.7 mph52%30.01 "Hg10 mi
8:30 AM57 °FSunny.5 mph63%30.01 "Hg10 mi
8:00 AM54 °FSunny.6 mph72%30.01 "Hg10 mi
7:30 AM52 °FSunny.7 mph72%30.01 "Hg10 mi
7:00 AM52 °FClear.5 mph72%30.04 "Hg10 mi
6:30 AM50 °FClear.7 mph76%30.04 "Hg10 mi
6:00 AM50 °FClear.6 mph76%30.04 "Hg10 mi
5:30 AM48 °FClear.6 mph82%30.04 "Hg10 mi
5:00 AM50 °FClear.2 mph71%30.04 "Hg10 mi
Weather by CustomWeather, © 2016

See weather overviewHow to use our weather pages